User: anonymous   Login
Location: Betz
(49.1556°N, 2.9558°E)
Time: 01:51:14
(UTC+00:00)
Language:

SL-8 R/B - Orbit

View from above orbital plane
View from above orbital plane
View from above satellite
View from above satellite

Ground track
Ground track

The orbit data is extracted from the following two-line orbital elements,

1 33066U 08031G   19325.14670837 -.00000138  00000-0  97797-5 0  9993
2 33066  48.4440 281.1730 0008238 266.6543  93.3425 14.69677670613211
Epoch (UTC): 21 November 2019 03:31:15
Eccentricity: 0.0008238
inclination: 48.4440°
perigee height: 656 km
apogee height: 668 km
right ascension of ascending node: 281.1730°
argument of perigee: 266.6543°
revolutions per day: 14.69677670
mean anomaly at epoch: 93.3425°
orbit number at epoch: 61321

The dashed part of the orbit path shows where the satellite is in the earth's shadow,  

DLR